Theta_e
323 322 322 320 319 321 321 321 320 319 319 320 321 321 320 321 320 317 314 320 316 315 315 314 314 315 314 316 315 313 312 311 310 308 307 306 306 306 306 305 305 305 306
325 324 322 321 320 320 321 321 320 319 320 320 321 322 322 322 319 318 319 318 316 315 315 315 315 315 316 317 316 316 314 313 311 309 307 306 308 307 306 305 305 305 305
327 324 322 320 320 319 320 321 320 320 319 319 320 321 322 322 321 321 321 320 318 317 316 315 317 318 317 318 317 317 316 315 312 311 311 308 309 308 308 306 305 305 304
325 323 321 319 319 319 318 320 320 319 319 319 319 321 320 321 322 321 320 321 321 321 320 318 319 321 319 319 319 318 318 316 314 311 310 311 311 309 310 308 309 309 306
324 323 320 319 318 318 318 319 320 319 319 318 318 319 320 321 321 322 321 322 322 322 322 323 322 322 321 321 321 320 318 317 315 314 311 310 310 310 309 311 309 306 307
324 323 320 318 317 317 318 319 319 319 319 318 317 318 320 319 321 321 321 321 321 321 321 322 322 322 322 322 322 321 320 319 316 315 315 314 311 308 307 307 308 307 308
323 322 319 317 316 316 318 318 318 318 318 318 317 317 318 319 319 320 320 319 319 319 320 320 320 321 321 321 322 322 321 320 318 317 316 316 314 314 312 310 308 307 308
323 323 321 319 317 316 317 317 316 316 317 318 318 317 317 317 317 318 317 317 317 317 318 319 319 319 319 320 321 321 322 321 321 320 318 317 316 314 312 311 309 303 302
323 323 321 320 318 317 316 317 316 316 316 316 317 317 317 317 317 317 317 317 316 319 320 320 320 320 320 320 321 321 321 321 322 318 321 317 316 314 312 312 310 307 304
322 322 322 320 319 317 316 316 316 316 316 315 315 316 316 317 318 317 316 316 319 321 321 320 319 319 320 320 322 322 320 321 322 321 321 316 314 314 313 310 307 306 304
321 323 322 321 319 317 315 315 316 315 314 314 314 315 316 317 317 317 315 314 317 319 320 320 319 319 321 322 321 321 321 321 319 318 316 313 314 313 309 307 304 302 302
320 321 322 322 319 317 315 314 315 315 314 314 314 315 315 315 315 317 317 318 318 320 321 321 321 322 322 322 322 321 321 320 319 317 313 311 310 308 306 305 302 302 301
319 319 319 320 321 319 318 316 315 315 315 316 316 317 318 318 319 319 320 320 320 320 321 321 321 321 322 321 321 320 318 318 317 314 311 308 307 305 303 302 301 301 299
316 317 318 319 320 321 320 319 318 317 316 317 318 319 319 319 320 320 320 320 320 320 321 322 322 322 321 319 319 318 317 314 311 309 308 306 306 305 302 300 300 299 298
314 314 316 316 318 319 321 320 320 319 319 320 320 320 320 321 321 322 321 321 321 321 322 322 321 321 320 319 317 315 312 309 307 304 303 302 301 300 300 299 298 297 295
312 313 314 315 314 317 319 321 321 320 320 320 321 321 321 321 322 323 323 323 322 322 322 321 320 319 316 316 314 310 307 305 304 300 299 299 299 298 297 296 294 292 290
311 313 315 317 318 319 319 319 319 321 321 320 321 320 318 319 322 322 322 321 321 320 318 316 314 313 313 309 307 306 304 302 301 299 297 295 293 293 292 291 289 288 285
311 310 312 315 318 320 319 317 317 318 319 318 317 317 318 319 319 318 318 316 313 312 311 310 308 307 305 303 302 303 302 300 298 296 294 293 290 289 288 287 284 282 281
312 310 312 316 318 317 317 317 317 316 316 313 313 315 316 316 314 311 310 309 307 306 304 304 304 304 300 300 301 300 298 295 292 290 289 288 286 284 283 281 280 281 281
312 313 316 316 316 314 315 314 314 314 312 312 312 313 312 311 308 307 305 303 303 301 301 300 300 299 298 298 298 298 296 291 288 285 283 283 281 279 279 280 281 280 280
314 314 315 315 314 314 314 313 312 311 311 311 309 308 308 307 306 304 302 301 300 299 298 297 296 296 296 295 295 293 292 289 285 283 281 279 278 279 280 280 279 279 278
314 313 313 313 313 313 314 312 310 309 309 308 307 306 305 303 302 301 299 299 298 295 293 292 290 289 289 289 288 288 287 285 284 281 279 278 279 280 280 279 278 277 276
314 312 311 310 310 311 312 309 307 307 306 304 302 302 301 300 300 299 297 295 295 292 289 288 285 284 285 285 285 284 284 283 281 279 278 278 278 279 278 277 277 276 274
311 310 310 309 307 308 309 307 306 306 304 301 300 300 299 298 298 297 297 296 294 292 289 286 284 282 281 281 281 281 280 280 279 278 278 278 278 277 277 276 275 274 273
306 305 305 304 303 303 303 304 305 305 301 299 298 297 296 295 292 290 290 291 290 292 288 285 283 282 281 280 280 280 279 279 278 278 278 277 276 276 275 274 274 273 272
300 299 298 296 294 295 296 298 300 300 296 291 289 287 287 285 284 283 283 285 286 288 288 287 286 283 282 279 279 278 278 278 277 277 276 276 275 274 274 273 273 272 271
Wind_Speed
8 15 16 18 17 19 20 22 24 27 28 26 22 24 25 25 26 34 35 28 29 26 24 25 24 22 23 20 18 17 16 15 14 10 9 12 15 17 18 17 18 19 19
8 13 17 18 19 20 20 21 22 28 29 28 24 17 25 27 31 31 32 30 30 27 27 27 25 25 24 22 23 21 17 14 16 8 3 1 6 20 23 23 23 23 22
15 12 13 18 19 20 21 21 22 24 27 25 25 18 23 19 27 32 30 27 26 27 26 25 25 25 26 26 26 24 22 19 19 16 7 1 4 2 7 21 28 27 25
12 14 13 18 20 22 22 23 24 25 25 27 31 25 25 18 20 31 31 26 27 26 26 27 28 28 30 27 28 24 25 22 21 19 21 13 6 3 2 6 13 19 29
16 16 18 22 21 21 26 27 28 25 29 29 32 31 26 28 27 30 29 29 29 30 29 28 31 30 30 30 27 26 27 28 28 26 14 20 15 13 6 4 8 12 19
15 13 19 19 19 21 26 29 28 27 29 34 33 34 33 30 28 31 32 33 33 32 32 32 32 31 30 29 29 30 30 32 33 31 28 21 10 14 9 3 10 8 9
15 15 16 15 22 27 30 29 30 29 31 34 36 38 38 33 33 35 36 34 33 34 35 32 32 32 32 32 32 33 33 34 34 34 33 32 32 26 19 18 7 9 14
13 17 18 21 25 27 31 32 32 30 34 36 36 37 35 36 34 32 32 33 34 34 32 32 30 32 33 35 34 35 36 37 34 34 36 37 35 32 30 21 12 2 8
14 17 17 23 26 28 32 35 31 32 33 36 35 32 33 33 31 34 32 33 34 32 29 29 30 30 30 33 33 34 36 35 28 27 31 35 34 26 25 23 21 12 3
10 13 14 20 26 27 29 33 31 33 33 33 32 30 30 31 32 31 34 36 36 36 36 35 33 30 28 29 29 32 32 31 32 30 34 34 30 24 21 20 19 16 11
10 13 14 21 22 23 29 35 37 34 34 36 32 29 28 30 35 41 44 46 45 43 41 42 38 33 32 33 30 32 27 27 30 30 33 32 26 19 19 17 16 13 12
7 9 11 16 22 25 28 32 30 33 30 31 31 40 41 42 49 52 49 40 40 47 43 37 32 36 35 34 32 33 35 29 31 31 31 27 22 19 17 16 16 13 12
5 6 8 12 16 24 28 30 32 33 35 34 39 37 38 41 41 39 41 37 39 41 42 38 37 31 29 31 31 31 31 30 31 32 27 24 21 18 17 15 14 12 12
6 6 6 9 14 21 25 27 31 36 37 39 38 39 39 46 33 29 34 37 38 40 38 37 34 31 28 27 26 27 26 27 26 23 20 21 20 19 16 14 10 9 9
7 9 9 9 9 16 22 26 29 35 37 37 38 42 44 41 37 37 35 34 34 35 33 32 30 29 27 27 26 24 25 22 17 14 14 13 13 10 12 10 8 8 7
10 9 8 6 8 14 21 27 28 32 36 35 35 34 33 33 35 31 28 28 29 29 30 29 28 29 23 20 20 20 20 17 18 20 18 15 11 11 7 7 8 5 5
12 11 11 13 12 16 16 16 16 21 30 29 29 29 28 26 24 20 20 21 22 23 23 22 21 19 16 16 15 15 17 20 21 21 17 15 11 9 6 5 5 5 5
10 12 10 6 12 15 14 14 14 17 21 21 21 22 23 20 17 16 17 17 18 17 17 17 17 15 14 15 18 19 21 21 19 16 14 11 9 7 6 4 4 4 4
13 10 15 16 21 19 18 17 17 17 18 18 18 17 17 16 16 17 17 16 16 15 14 14 15 18 21 18 18 22 22 21 17 13 10 8 6 3 3 3 3 3 3
4 6 17 22 24 22 23 21 18 18 16 16 16 17 16 17 18 17 15 15 16 18 18 18 18 21 21 16 17 17 19 18 16 12 8 4 1 2 2 3 2 3 5
6 16 14 18 22 25 23 18 18 16 18 18 18 16 14 15 15 16 16 19 20 21 22 23 22 21 18 16 13 11 12 13 12 9 6 3 2 1 1 1 4 5 7
5 12 14 16 18 20 21 18 17 20 20 19 18 16 15 15 16 19 20 19 22 25 24 24 22 18 16 15 14 12 10 9 7 6 4 2 2 3 2 2 4 6 8
5 8 16 19 17 19 21 22 21 22 21 21 20 18 17 17 16 18 20 20 22 24 21 20 20 17 14 13 11 10 8 6 4 3 1 0 1 2 1 3 5 7 9
8 8 12 15 16 19 21 26 24 22 22 24 23 22 22 20 18 18 18 19 19 18 17 17 15 14 12 10 7 6 5 4 3 2 2 1 2 1 2 4 6 8 8
16 17 12 15 17 21 21 23 24 25 28 27 25 24 24 24 22 18 13 13 10 11 16 14 14 15 10 6 4 3 4 5 4 2 1 1 1 2 4 5 6 7 8
21 16 17 17 22 25 22 18 21 24 28 24 22 22 24 23 23 25 29 25 19 15 13 11 8 9 9 7 6 7 6 4 3 2 0 2 2 4 4 5 6 8 9
Wind_Direction
174 187 194 193 192 185 185 181 176 181 184 181 173 174 181 189 185 193 186 206 200 194 192 196 198 198 203 200 198 195 192 185 195 190 216 233 235 233 234 234 233 234 232
170 179 183 178 183 184 179 182 181 185 186 181 173 178 176 191 198 200 208 204 201 199 204 205 208 211 213 213 211 208 207 204 202 187 162 299 254 241 240 238 241 243 240
194 182 186 191 183 184 186 181 182 189 187 183 177 175 186 183 193 203 203 201 201 208 212 214 219 220 220 222 219 218 218 209 207 205 183 148 229 346 243 241 244 244 242
186 191 195 204 196 191 188 187 188 190 184 185 188 182 182 184 195 197 205 205 208 214 214 217 223 228 228 228 229 228 228 224 214 215 222 224 183 182 287 242 251 254 246
181 186 194 201 197 190 189 187 192 199 189 188 191 193 190 195 199 198 202 206 212 216 220 223 228 230 233 237 240 238 235 234 232 223 210 220 225 230 213 266 250 249 248
185 187 185 182 191 186 189 196 195 200 199 193 195 196 199 199 200 202 205 212 217 222 227 229 232 237 241 243 247 246 246 243 238 239 239 226 214 213 202 206 240 235 246
175 173 171 175 182 190 190 193 196 198 202 201 202 204 208 205 208 210 212 216 222 227 231 234 238 242 246 250 252 254 252 248 244 245 246 246 243 241 234 228 211 222 238
177 181 181 179 182 191 191 192 193 196 202 206 209 211 214 218 220 224 224 228 231 235 240 244 249 250 253 256 255 254 253 250 252 257 251 251 247 244 243 233 212 212 232
181 185 182 183 183 186 190 194 198 202 202 203 206 208 217 222 227 231 235 241 246 251 255 259 260 261 261 262 261 258 256 256 252 260 262 252 246 244 239 242 236 208 182
172 175 182 189 191 189 187 192 198 203 205 206 206 207 215 227 233 238 243 245 250 253 255 256 259 262 264 266 266 262 259 257 246 254 252 242 240 232 233 225 224 215 209
175 179 185 189 187 186 187 192 199 200 201 203 205 209 219 230 236 239 241 243 247 251 253 254 251 250 255 258 255 251 253 253 254 252 244 238 236 229 219 207 217 217 206
188 192 181 172 178 185 188 196 196 200 200 201 203 211 215 226 234 234 236 238 238 246 248 243 247 259 248 246 238 245 250 255 250 247 241 230 224 212 208 203 209 222 232
222 183 172 180 182 188 192 195 196 197 199 197 203 210 216 225 236 233 234 236 237 240 243 244 240 242 240 240 252 252 257 255 246 245 230 225 207 202 199 204 212 225 237
207 219 206 197 192 194 194 194 196 197 196 200 203 211 217 228 239 242 234 234 235 238 241 236 235 237 251 250 251 255 257 247 235 232 227 216 204 195 195 203 213 216 234
219 217 214 212 202 195 194 199 195 194 194 199 201 209 217 224 232 237 240 242 237 236 239 236 239 242 250 250 251 253 243 231 215 203 189 178 179 184 186 188 207 222 216
235 219 219 233 216 211 202 204 201 195 192 195 202 209 214 218 225 232 229 236 240 239 240 237 238 247 238 247 250 236 218 201 185 163 161 159 174 175 203 188 199 210 238
214 212 211 217 219 206 207 191 191 193 192 193 198 203 207 209 213 222 229 225 225 229 227 228 223 218 225 226 215 204 186 172 165 159 156 148 158 161 176 189 224 256 282
211 215 224 189 161 162 159 166 164 174 175 174 183 194 198 199 201 211 221 221 220 212 205 204 202 190 172 171 174 172 163 154 151 155 158 161 157 168 187 217 250 274 295
226 214 207 151 145 152 158 152 151 156 159 158 169 184 187 191 199 203 204 204 195 184 175 169 162 155 148 158 159 157 147 139 134 139 143 151 157 189 274 276 285 309 318
199 153 145 140 141 148 152 145 140 143 142 158 171 180 185 188 187 186 179 166 159 141 144 135 141 145 137 146 152 154 148 140 137 132 120 127 114 333 338 304 303 326 324
155 132 137 139 140 150 147 132 132 131 151 157 160 161 167 171 174 164 154 148 145 139 132 127 127 131 136 137 142 144 143 138 132 123 114 94 76 91 161 347 348 355 324
128 124 126 127 140 146 136 123 117 138 148 145 142 141 145 150 152 149 143 145 143 135 129 123 116 115 117 123 123 123 126 125 129 134 138 141 137 122 142 5 342 322 329
104 102 125 119 119 129 132 116 126 138 135 130 128 129 127 128 136 139 139 137 142 134 127 126 122 119 123 125 131 129 126 124 119 122 156 191 102 161 236 321 320 322 328
46 82 115 107 103 124 134 133 138 141 137 125 124 124 120 117 121 127 135 139 142 142 144 142 142 142 130 118 112 100 81 47 13 360 16 53 154 201 299 312 319 324 325
76 66 64 84 84 103 118 136 140 146 135 132 132 129 127 125 117 104 106 123 132 165 158 151 144 137 119 109 94 46 24 16 23 27 49 163 224 302 315 310 312 314 317
88 76 83 79 85 87 93 114 133 142 134 113 113 112 109 105 100 97 85 82 85 89 92 105 126 117 122 109 78 61 55 47 51 44 254 258 286 305 304 297 305 308 305